Time,TemperatureF,DewpointF,PressureIn,WindDirection,WindDirectionDegrees,WindSpeedMPH,WindSpeedGustMPH,Humidity,HourlyPrecipIn,Conditions,Clouds,dailyrainin,SoftwareType,DateUTC
2013-02-02 00:00:00,20.5,8.0,30.11,WNW,292,0.0,9.0,58,0.00,,,0.00,Wunderground PWS Mod,2013-02-02 05:00:00,
2013-02-02 00:01:00,20.4,8.0,30.11,WNW,292,0.0,9.0,58,0.00,,,0.00,Wunderground PWS Mod,2013-02-02 05:01:00,
2013-02-02 00:02:00,20.4,8.0,30.11,WNW,292,0.0,9.0,58,0.00,,,0.00,Wunderground PWS Mod,2013-02-02 05:02:00,
2013-02-02 00:03:00,20.4,8.0,30.11,WNW,292,0.0,9.0,58,0.00,,,0.00,Wunderground PWS Mod,2013-02-02 05:03:00,
2013-02-02 00:09:00,20.5,8.0,30.12,WNW,292,0.0,2.0,58,0.00,,,0.00,Wunderground PWS Mod,2013-02-02 05:09:00,
2013-02-02 00:14:00,20.3,8.2,30.12,WNW,293,0.0,3.0,59,0.00,,,0.00,Wunderground PWS Mod,2013-02-02 05:14:00,
2013-02-02 00:15:00,20.4,8.0,30.12,WNW,292,0.0,2.0,58,0.00,,,0.00,Wunderground PWS Mod,2013-02-02 05:15:00,
2013-02-02 00:20:00,20.4,8.0,30.12,WNW,292,0.0,2.0,58,0.00,,,0.00,Wunderground PWS Mod,2013-02-02 05:20:00,
2013-02-02 00:26:00,20.3,7.9,30.12,WNW,287,0.0,2.0,58,0.00,,,0.00,Wunderground PWS Mod,2013-02-02 05:26:00,
2013-02-02 00:31:00,20.3,8.2,30.12,WNW,286,0.0,2.0,59,0.00,,,0.00,Wunderground PWS Mod,2013-02-02 05:31:00,
2013-02-02 00:36:00,20.3,8.2,30.12,West,279,1.0,2.0,59,0.00,,,0.00,Wunderground PWS Mod,2013-02-02 05:36:00,
2013-02-02 00:41:00,20.2,8.1,30.12,West,270,1.0,2.0,59,0.00,,,0.00,Wunderground PWS Mod,2013-02-02 05:41:00,
2013-02-02 00:46:00,20.2,8.1,30.12,West,272,1.0,2.0,59,0.00,,,0.00,Wunderground PWS Mod,2013-02-02 05:46:00,
2013-02-02 00:52:00,20.2,8.1,30.12,West,270,1.0,2.0,59,0.00,,,0.00,Wunderground PWS Mod,2013-02-02 05:52:00,
2013-02-02 00:57:00,20.2,8.1,30.12,West,279,1.0,2.0,59,0.00,,,0.00,Wunderground PWS Mod,2013-02-02 05:57:00,
2013-02-02 01:02:00,20.2,8.1,30.12,West,279,1.0,2.0,59,0.00,,,0.00,Wunderground PWS Mod,2013-02-02 06:02:00,
2013-02-02 01:07:00,20.3,8.2,30.13,West,279,0.0,2.0,59,0.00,,,0.00,Wunderground PWS Mod,2013-02-02 06:07:00,
2013-02-02 01:13:00,20.2,8.1,30.13,West,279,0.0,2.0,59,0.00,,,0.00,Wunderground PWS Mod,2013-02-02 06:13:00,
2013-02-02 01:19:00,20.2,8.1,30.13,WNW,286,0.0,3.0,59,0.00,,,0.00,Wunderground PWS Mod,2013-02-02 06:19:00,
2013-02-02 01:25:00,20.3,8.2,30.13,West,278,1.0,2.0,59,0.00,,,0.00,Wunderground PWS Mod,2013-02-02 06:25:00,
2013-02-02 01:30:00,20.3,8.2,30.14,West,278,0.0,2.0,59,0.00,,,0.00,Wunderground PWS Mod,2013-02-02 06:30:00,
2013-02-02 01:35:00,20.4,8.3,30.14,West,272,0.0,2.0,59,0.00,,,0.00,Wunderground PWS Mod,2013-02-02 06:35:00,
2013-02-02 01:40:00,20.3,8.2,30.14,West,272,0.0,2.0,59,0.00,,,0.00,Wunderground PWS Mod,2013-02-02 06:40:00,
2013-02-02 01:45:00,20.3,8.2,30.15,West,273,0.0,2.0,59,0.00,,,0.00,Wunderground PWS Mod,2013-02-02 06:45:00,
2013-02-02 01:50:00,20.3,8.2,30.15,West,273,0.0,2.0,59,0.00,,,0.00,Wunderground PWS Mod,2013-02-02 06:50:00,
2013-02-02 01:55:00,20.2,8.5,30.15,West,273,0.0,2.0,60,0.00,,,0.00,Wunderground PWS Mod,2013-02-02 06:55:00,
2013-02-02 02:01:00,20.1,8.4,30.15,West,271,0.0,2.0,60,0.00,,,0.00,Wunderground PWS Mod,2013-02-02 07:01:00,
2013-02-02 02:06:00,20.0,8.3,30.15,WNW,294,1.0,2.0,60,0.00,,,0.00,Wunderground PWS Mod,2013-02-02 07:06:00,
2013-02-02 02:11:00,19.9,8.6,30.15,WNW,285,1.0,2.0,61,0.00,,,0.00,Wunderground PWS Mod,2013-02-02 07:11:00,
2013-02-02 02:16:00,20.0,8.3,30.15,WNW,301,0.0,2.0,60,0.00,,,0.00,Wunderground PWS Mod,2013-02-02 07:16:00,
2013-02-02 02:21:00,20.0,8.3,30.16,WNW,300,0.0,2.0,60,0.00,,,0.00,Wunderground PWS Mod,2013-02-02 07:21:00,
2013-02-02 02:27:00,19.9,8.6,30.16,WNW,300,0.0,2.0,61,0.00,,,0.00,Wunderground PWS Mod,2013-02-02 07:27:00,
2013-02-02 02:32:00,19.8,8.5,30.16,WNW,288,1.0,2.0,61,0.00,,,0.00,Wunderground PWS Mod,2013-02-02 07:32:00,
2013-02-02 02:37:00,19.8,8.5,30.16,WNW,282,1.0,2.0,61,0.00,,,0.00,Wunderground PWS Mod,2013-02-02 07:37:00,
2013-02-02 02:42:00,19.8,8.5,30.16,WNW,282,0.0,2.0,61,0.00,,,0.00,Wunderground PWS Mod,2013-02-02 07:42:00,
2013-02-02 02:47:00,19.8,8.5,30.15,WNW,282,0.0,2.0,61,0.00,,,0.00,Wunderground PWS Mod,2013-02-02 07:47:00,
2013-02-02 02:52:00,19.6,8.7,30.15,WNW,282,0.0,2.0,62,0.00,,,0.00,Wunderground PWS Mod,2013-02-02 07:52:00,
2013-02-02 02:57:00,19.4,8.8,30.15,WNW,282,0.0,2.0,63,0.00,,,0.00,Wunderground PWS Mod,2013-02-02 07:57:00,
2013-02-02 03:05:00,19.2,8.7,30.16,WNW,282,0.0,2.0,63,0.00,,,0.00,Wunderground PWS Mod,2013-02-02 08:05:00,
2013-02-02 03:11:00,19.1,8.6,30.16,WNW,282,0.0,2.0,63,0.00,,,0.00,Wunderground PWS Mod,2013-02-02 08:11:00,
2013-02-02 03:16:00,19.1,8.6,30.17,West,280,0.0,2.0,63,0.00,,,0.00,Wunderground PWS Mod,2013-02-02 08:16:00,
2013-02-02 03:21:00,19.1,8.6,30.17,West,280,0.0,2.0,63,0.00,,,0.00,Wunderground PWS Mod,2013-02-02 08:21:00,
2013-02-02 03:26:00,19.1,8.6,30.17,West,280,1.0,2.0,63,0.00,,,0.00,Wunderground PWS Mod,2013-02-02 08:26:00,
2013-02-02 03:31:00,19.0,8.8,30.17,West,280,0.0,2.0,64,0.00,,,0.00,Wunderground PWS Mod,2013-02-02 08:31:00,
2013-02-02 03:37:00,19.0,8.8,30.17,West,280,0.0,2.0,64,0.00,,,0.00,Wunderground PWS Mod,2013-02-02 08:37:00,
2013-02-02 03:42:00,19.1,8.9,30.17,West,280,0.0,2.0,64,0.00,,,0.00,Wunderground PWS Mod,2013-02-02 08:42:00,
2013-02-02 03:47:00,19.1,8.9,30.17,West,280,0.0,2.0,64,0.00,,,0.00,Wunderground PWS Mod,2013-02-02 08:47:00,
2013-02-02 03:53:00,18.9,9.1,30.17,West,280,0.0,2.0,65,0.00,,,0.00,Wunderground PWS Mod,2013-02-02 08:53:00,
2013-02-02 03:59:00,18.7,8.9,30.17,West,280,0.0,2.0,65,0.00,,,0.00,Wunderground PWS Mod,2013-02-02 08:59:00,
2013-02-02 04:05:00,18.6,8.8,30.17,West,280,0.0,2.0,65,0.00,,,0.00,Wunderground PWS Mod,2013-02-02 09:05:00,
2013-02-02 04:10:00,18.6,8.8,30.18,West,280,0.0,0.0,65,0.00,,,0.00,Wunderground PWS Mod,2013-02-02 09:10:00,
2013-02-02 04:14:00,18.7,8.9,30.17,N/A,-737280,0.0,0.0,65,0.00,,,0.00,Wunderground PWS Mod,2013-02-02 09:14:00,
2013-02-02 04:16:00,18.6,8.8,30.18,West,280,0.0,0.0,65,0.00,,,0.00,Wunderground PWS Mod,2013-02-02 09:16:00,
2013-02-02 04:21:00,18.5,8.7,30.18,West,280,0.0,0.0,65,0.00,,,0.00,Wunderground PWS Mod,2013-02-02 09:21:00,
2013-02-02 04:27:00,18.4,8.9,30.18,West,280,0.0,0.0,66,0.00,,,0.00,Wunderground PWS Mod,2013-02-02 09:27:00,
2013-02-02 04:32:00,18.4,8.9,30.18,West,280,0.0,0.0,66,0.00,,,0.00,Wunderground PWS Mod,2013-02-02 09:32:00,
2013-02-02 04:37:00,18.2,8.7,30.18,West,280,0.0,0.0,66,0.00,,,0.00,Wunderground PWS Mod,2013-02-02 09:37:00,
2013-02-02 04:42:00,18.2,9.1,30.18,West,280,0.0,0.0,67,0.00,,,0.00,Wunderground PWS Mod,2013-02-02 09:42:00,
2013-02-02 04:47:00,18.1,9.3,30.18,West,280,0.0,0.0,68,0.00,,,0.00,Wunderground PWS Mod,2013-02-02 09:47:00,
2013-02-02 04:53:00,18.0,9.2,30.18,West,280,0.0,0.0,68,0.00,,,0.00,Wunderground PWS Mod,2013-02-02 09:53:00,
2013-02-02 04:58:00,18.1,9.3,30.19,West,280,0.0,1.0,68,0.00,,,0.00,Wunderground PWS Mod,2013-02-02 09:58:00,
2013-02-02 05:05:00,18.1,9.3,30.19,West,280,0.0,0.0,68,0.00,,,0.00,Wunderground PWS Mod,2013-02-02 10:05:00,
2013-02-02 05:10:00,18.1,9.3,30.19,West,280,0.0,0.0,68,0.00,,,0.00,Wunderground PWS Mod,2013-02-02 10:10:00,
2013-02-02 05:15:00,18.0,9.5,30.20,West,280,0.0,0.0,69,0.00,,,0.00,Wunderground PWS Mod,2013-02-02 10:15:00,
2013-02-02 05:21:00,17.9,9.1,30.20,West,280,0.0,0.0,68,0.00,,,0.00,Wunderground PWS Mod,2013-02-02 10:21:00,
2013-02-02 05:26:00,17.8,9.3,30.20,West,280,0.0,0.0,69,0.00,,,0.00,Wunderground PWS Mod,2013-02-02 10:26:00,
2013-02-02 05:31:00,17.9,9.1,30.20,West,280,0.0,0.0,68,0.00,,,0.00,Wunderground PWS Mod,2013-02-02 10:31:00,
2013-02-02 05:36:00,17.9,9.4,30.20,West,280,0.0,0.0,69,0.00,,,0.00,Wunderground PWS Mod,2013-02-02 10:36:00,
2013-02-02 05:42:00,17.9,9.4,30.20,West,280,0.0,0.0,69,0.00,,,0.00,Wunderground PWS Mod,2013-02-02 10:42:00,
2013-02-02 05:47:00,17.7,9.6,30.20,West,280,0.0,0.0,70,0.00,,,0.00,Wunderground PWS Mod,2013-02-02 10:47:00,
2013-02-02 05:52:00,17.6,9.8,30.20,West,280,0.0,0.0,71,0.00,,,0.00,Wunderground PWS Mod,2013-02-02 10:52:00,
2013-02-02 05:58:00,17.4,9.6,30.21,West,280,0.0,0.0,71,0.00,,,0.00,Wunderground PWS Mod,2013-02-02 10:58:00,
2013-02-02 06:03:00,17.1,8.7,30.20,West,261,0.0,0.0,69,0.00,,,0.00,Wunderground PWS Mod,2013-02-02 11:03:00,
2013-02-02 06:08:00,17.0,8.9,30.20,West,261,0.0,0.0,70,0.00,,,0.00,Wunderground PWS Mod,2013-02-02 11:08:00,
2013-02-02 06:15:00,16.9,8.8,30.20,West,260,0.0,0.0,70,0.00,,,0.00,Wunderground PWS Mod,2013-02-02 11:15:00,
2013-02-02 06:20:00,16.8,8.7,30.20,West,260,0.0,0.0,70,0.00,,,0.00,Wunderground PWS Mod,2013-02-02 11:20:00,
2013-02-02 06:26:00,16.8,8.7,30.20,West,260,0.0,0.0,70,0.00,,,0.00,Wunderground PWS Mod,2013-02-02 11:26:00,
2013-02-02 06:31:00,17.0,8.9,30.20,West,263,0.0,1.0,70,0.00,,,0.00,Wunderground PWS Mod,2013-02-02 11:31:00,
2013-02-02 06:36:00,17.1,9.0,30.21,West,268,0.0,1.0,70,0.00,,,0.00,Wunderground PWS Mod,2013-02-02 11:36:00,
2013-02-02 06:41:00,17.1,9.3,30.21,West,277,1.0,1.0,71,0.00,,,0.00,Wunderground PWS Mod,2013-02-02 11:41:00,
2013-02-02 06:47:00,17.2,9.1,30.21,WSW,246,1.0,1.0,70,0.00,,,0.00,Wunderground PWS Mod,2013-02-02 11:47:00,
2013-02-02 06:52:00,17.3,9.2,30.22,West,271,1.0,1.0,70,0.00,,,0.00,Wunderground PWS Mod,2013-02-02 11:52:00,
2013-02-02 06:58:00,17.3,9.2,30.22,West,261,1.0,1.0,70,0.00,,,0.00,Wunderground PWS Mod,2013-02-02 11:58:00,
2013-02-02 07:03:00,17.2,9.1,30.21,West,264,1.0,1.0,70,0.00,,,0.00,Wunderground PWS Mod,2013-02-02 12:03:00,
2013-02-02 07:09:00,17.2,9.4,30.22,West,260,0.0,0.0,71,0.00,,,0.00,Wunderground PWS Mod,2013-02-02 12:09:00,
2013-02-02 07:14:00,17.3,9.5,30.22,West,264,0.0,1.0,71,0.00,,,0.00,Wunderground PWS Mod,2013-02-02 12:14:00,
2013-02-02 07:20:00,17.3,9.5,30.22,West,264,0.0,0.0,71,0.00,,,0.00,Wunderground PWS Mod,2013-02-02 12:20:00,
2013-02-02 07:25:00,17.2,9.7,30.22,West,280,0.0,0.0,72,0.00,,,0.00,Wunderground PWS Mod,2013-02-02 12:25:00,
2013-02-02 07:31:00,17.3,10.1,30.23,West,280,0.0,0.0,73,0.00,,,0.00,Wunderground PWS Mod,2013-02-02 12:31:00,
2013-02-02 07:36:00,17.4,10.2,30.23,West,280,0.0,0.0,73,0.00,,,0.00,Wunderground PWS Mod,2013-02-02 12:36:00,
2013-02-02 07:41:00,17.5,10.3,30.23,West,280,0.0,0.0,73,0.00,,,0.00,Wunderground PWS Mod,2013-02-02 12:41:00,
2013-02-02 07:47:00,17.8,10.3,30.23,West,280,0.0,0.0,72,0.00,,,0.00,Wunderground PWS Mod,2013-02-02 12:47:00,
2013-02-02 07:53:00,18.2,10.4,30.23,West,280,0.0,0.0,71,0.00,,,0.00,Wunderground PWS Mod,2013-02-02 12:53:00,
2013-02-02 07:58:00,18.5,10.7,30.23,West,280,0.0,0.0,71,0.00,,,0.00,Wunderground PWS Mod,2013-02-02 12:58:00,
2013-02-02 08:03:00,18.8,10.9,30.23,West,280,0.0,0.0,71,0.00,,,0.00,Wunderground PWS Mod,2013-02-02 13:03:00,
2013-02-02 08:09:00,19.0,11.1,30.23,West,280,0.0,0.0,71,0.00,,,0.00,Wunderground PWS Mod,2013-02-02 13:09:00,
2013-02-02 08:14:00,18.8,10.9,30.23,N/A,-737280,0.0,0.0,71,0.00,,,0.00,Wunderground PWS Mod,2013-02-02 13:14:00,
2013-02-02 08:15:00,19.3,11.4,30.23,West,280,0.0,0.0,71,0.00,,,0.00,Wunderground PWS Mod,2013-02-02 13:15:00,
2013-02-02 08:20:00,19.6,11.1,30.23,WNW,294,0.0,1.0,69,0.00,,,0.00,Wunderground PWS Mod,2013-02-02 13:20:00,
2013-02-02 08:26:00,20.0,11.5,30.24,WNW,293,1.0,1.0,69,0.00,,,0.00,Wunderground PWS Mod,2013-02-02 13:26:00,
2013-02-02 08:31:00,20.3,11.7,30.24,WNW,287,1.0,1.0,69,0.00,,,0.00,Wunderground PWS Mod,2013-02-02 13:31:00,
2013-02-02 08:36:00,20.6,11.7,30.25,WNW,289,1.0,2.0,68,0.00,,,0.00,Wunderground PWS Mod,2013-02-02 13:36:00,
2013-02-02 08:42:00,20.8,11.9,30.25,WNW,294,2.0,2.0,68,0.00,,,0.00,Wunderground PWS Mod,2013-02-02 13:42:00,
2013-02-02 08:47:00,21.1,11.8,30.24,NW,323,2.0,2.0,67,0.00,,,0.00,Wunderground PWS Mod,2013-02-02 13:47:00,
2013-02-02 08:52:00,21.5,11.9,30.24,West,269,2.0,2.0,66,0.00,,,0.00,Wunderground PWS Mod,2013-02-02 13:52:00,
2013-02-02 08:58:00,21.7,11.7,30.24,West,264,1.0,1.0,65,0.00,,,0.00,Wunderground PWS Mod,2013-02-02 13:58:00,
2013-02-02 09:05:00,22.0,12.0,30.24,West,266,1.0,1.0,65,0.00,,,0.00,Wunderground PWS Mod,2013-02-02 14:05:00,
2013-02-02 09:10:00,22.2,12.2,30.24,West,265,1.0,1.0,65,0.00,,,0.00,Wunderground PWS Mod,2013-02-02 14:10:00,
2013-02-02 09:15:00,22.4,12.4,30.24,WSW,258,1.0,1.0,65,0.00,,,0.00,Wunderground PWS Mod,2013-02-02 14:15:00,
2013-02-02 09:21:00,22.5,12.5,30.24,West,264,1.0,1.0,65,0.00,,,0.00,Wunderground PWS Mod,2013-02-02 14:21:00,
2013-02-02 09:26:00,22.7,12.3,30.24,WNW,300,1.0,3.0,64,0.00,,,0.00,Wunderground PWS Mod,2013-02-02 14:26:00,
2013-02-02 09:31:00,22.8,12.1,30.24,WNW,298,2.0,2.0,63,0.00,,,0.00,Wunderground PWS Mod,2013-02-02 14:31:00,
2013-02-02 09:37:00,23.0,12.3,30.24,NW,317,2.0,2.0,63,0.00,,,0.00,Wunderground PWS Mod,2013-02-02 14:37:00,
2013-02-02 09:42:00,23.1,12.0,30.24,WNW,285,2.0,3.0,62,0.00,,,0.00,Wunderground PWS Mod,2013-02-02 14:42:00,
2013-02-02 09:47:00,23.2,12.1,30.23,West,261,2.0,2.0,62,0.00,,,0.00,Wunderground PWS Mod,2013-02-02 14:47:00,
2013-02-02 09:53:00,23.5,12.7,30.23,West,267,1.0,1.0,63,0.00,,,0.00,Wunderground PWS Mod,2013-02-02 14:53:00,
2013-02-02 09:58:00,23.8,11.9,30.23,WSW,257,1.0,1.0,60,0.00,,,0.00,Wunderground PWS Mod,2013-02-02 14:58:00,
2013-02-02 10:05:00,24.2,11.9,30.23,NW,323,2.0,2.0,59,0.00,,,0.00,Wunderground PWS Mod,2013-02-02 15:05:00,
2013-02-02 10:10:00,24.3,11.6,30.23,West,271,2.0,4.0,58,0.00,,,0.00,Wunderground PWS Mod,2013-02-02 15:10:00,
2013-02-02 10:15:00,24.3,11.2,30.23,West,267,2.0,2.0,57,0.00,,,0.00,Wunderground PWS Mod,2013-02-02 15:15:00,
2013-02-02 10:20:00,24.5,11.4,30.23,WNW,297,2.0,4.0,57,0.00,,,0.00,Wunderground PWS Mod,2013-02-02 15:20:00,
2013-02-02 10:26:00,24.9,11.8,30.23,WNW,288,2.0,3.0,57,0.00,,,0.00,Wunderground PWS Mod,2013-02-02 15:26:00,
2013-02-02 10:31:00,25.1,12.0,30.22,WSW,255,2.0,2.0,57,0.00,,,0.00,Wunderground PWS Mod,2013-02-02 15:31:00,
2013-02-02 10:36:00,25.6,12.9,30.22,WSW,253,1.0,3.0,58,0.00,,,0.00,Wunderground PWS Mod,2013-02-02 15:36:00,
2013-02-02 10:42:00,25.4,11.5,30.22,West,259,1.0,1.0,55,0.00,,,0.00,Wunderground PWS Mod,2013-02-02 15:42:00,
2013-02-02 10:47:00,25.4,11.5,30.22,SW,219,2.0,2.0,55,0.00,,,0.00,Wunderground PWS Mod,2013-02-02 15:47:00,
2013-02-02 10:52:00,25.9,12.3,30.21,South,178,1.0,1.0,56,0.00,,,0.00,Wunderground PWS Mod,2013-02-02 15:52:00,
2013-02-02 10:57:00,26.6,12.2,30.21,WNW,284,1.0,2.0,54,0.00,,,0.00,Wunderground PWS Mod,2013-02-02 15:57:00,
2013-02-02 11:03:00,26.6,12.6,30.21,West,267,1.0,3.0,55,0.00,,,0.00,Wunderground PWS Mod,2013-02-02 16:03:00,
2013-02-02 11:08:00,26.8,13.2,30.21,SW,218,1.0,1.0,56,0.00,,,0.00,Wunderground PWS Mod,2013-02-02 16:08:00,
2013-02-02 11:14:00,27.0,12.5,30.20,West,268,2.0,3.0,54,0.00,,,0.00,Wunderground PWS Mod,2013-02-02 16:14:00,
2013-02-02 11:20:00,27.1,12.2,30.20,WSW,240,2.0,2.0,53,0.00,,,0.00,Wunderground PWS Mod,2013-02-02 16:20:00,
2013-02-02 11:25:00,27.0,12.5,30.20,SW,234,2.0,2.0,54,0.00,,,0.00,Wunderground PWS Mod,2013-02-02 16:25:00,
2013-02-02 11:30:00,27.0,12.5,30.19,SW,225,1.0,1.0,54,0.00,,,0.00,Wunderground PWS Mod,2013-02-02 16:30:00,
2013-02-02 11:35:00,27.2,13.6,30.19,SSW,208,2.0,2.0,56,0.00,,,0.00,Wunderground PWS Mod,2013-02-02 16:35:00,
2013-02-02 11:41:00,27.4,13.3,30.18,WSW,242,3.0,3.0,55,0.00,,,0.00,Wunderground PWS Mod,2013-02-02 16:41:00,
2013-02-02 11:46:00,27.5,14.2,30.18,West,268,2.0,4.0,57,0.00,,,0.00,Wunderground PWS Mod,2013-02-02 16:46:00,
2013-02-02 11:52:00,27.4,14.5,30.18,West,264,2.0,2.0,58,0.00,,,0.00,Wunderground PWS Mod,2013-02-02 16:52:00,
2013-02-02 11:57:00,27.1,14.3,30.18,West,259,2.0,2.0,58,0.00,,,0.00,Wunderground PWS Mod,2013-02-02 16:57:00,
2013-02-02 12:02:00,27.4,14.5,30.17,West,274,2.0,4.0,58,0.00,,,0.00,Wunderground PWS Mod,2013-02-02 17:02:00,
2013-02-02 12:08:00,27.3,15.2,30.17,SSW,206,3.0,9.0,60,0.00,,,0.00,Wunderground PWS Mod,2013-02-02 17:08:00,
2013-02-02 12:15:00,27.8,15.3,30.17,SW,219,2.0,9.0,59,0.00,,,0.00,Wunderground PWS Mod,2013-02-02 17:15:00,
2013-02-02 12:20:00,27.9,15.0,30.17,SW,225,2.0,9.0,58,0.00,,,0.00,Wunderground PWS Mod,2013-02-02 17:20:00,
2013-02-02 12:25:00,27.4,13.7,30.16,WSW,258,3.0,9.0,56,0.00,,,0.00,Wunderground PWS Mod,2013-02-02 17:25:00,
2013-02-02 12:31:00,27.6,14.3,30.16,West,273,3.0,9.0,57,0.00,,,0.00,Wunderground PWS Mod,2013-02-02 17:31:00,
2013-02-02 12:36:00,28.3,15.0,30.16,SW,236,2.0,9.0,57,0.00,,,0.00,Wunderground PWS Mod,2013-02-02 17:36:00,
2013-02-02 12:41:00,28.1,12.3,30.15,West,265,3.0,9.0,51,0.00,,,0.00,Wunderground PWS Mod,2013-02-02 17:41:00,
2013-02-02 12:46:00,27.8,12.9,30.15,South,186,4.0,9.0,53,0.00,,,0.00,Wunderground PWS Mod,2013-02-02 17:46:00,
2013-02-02 12:52:00,28.6,14.0,30.14,WSW,253,3.0,9.0,54,0.00,,,0.00,Wunderground PWS Mod,2013-02-02 17:52:00,
2013-02-02 12:57:00,28.4,12.6,30.14,West,262,2.0,9.0,51,0.00,,,0.00,Wunderground PWS Mod,2013-02-02 17:57:00,
2013-02-02 13:02:00,28.2,12.4,30.14,WSW,255,2.0,9.0,51,0.00,,,0.00,Wunderground PWS Mod,2013-02-02 18:02:00,
2013-02-02 13:07:00,28.4,13.0,30.13,South,190,2.0,9.0,52,0.00,,,0.00,Wunderground PWS Mod,2013-02-02 18:07:00,
2013-02-02 13:13:00,28.8,13.8,30.13,West,270,1.0,9.0,53,0.00,,,0.00,Wunderground PWS Mod,2013-02-02 18:13:00,
2013-02-02 13:18:00,29.0,14.0,30.13,SW,234,1.0,9.0,53,0.00,,,0.00,Wunderground PWS Mod,2013-02-02 18:18:00,
2013-02-02 13:23:00,28.7,13.3,30.13,WSW,249,3.0,9.0,52,0.00,,,0.00,Wunderground PWS Mod,2013-02-02 18:23:00,
2013-02-02 13:28:00,28.5,13.9,30.12,West,263,3.0,9.0,54,0.00,,,0.00,Wunderground PWS Mod,2013-02-02 18:28:00,
2013-02-02 13:34:00,28.8,14.6,30.13,WNW,283,3.0,9.0,55,0.00,,,0.00,Wunderground PWS Mod,2013-02-02 18:34:00,
2013-02-02 13:40:00,28.9,14.3,30.12,WSW,241,2.0,9.0,54,0.00,,,0.00,Wunderground PWS Mod,2013-02-02 18:40:00,
2013-02-02 13:45:00,29.2,13.7,30.12,SW,221,3.0,9.0,52,0.00,,,0.00,Wunderground PWS Mod,2013-02-02 18:45:00,
2013-02-02 13:50:00,29.5,14.5,30.11,WSW,242,2.0,9.0,53,0.00,,,0.00,Wunderground PWS Mod,2013-02-02 18:50:00,
2013-02-02 13:56:00,29.7,13.8,30.11,WNW,286,2.0,9.0,51,0.00,,,0.00,Wunderground PWS Mod,2013-02-02 18:56:00,
2013-02-02 14:01:00,29.5,14.0,30.11,West,260,2.0,9.0,52,0.00,,,0.00,Wunderground PWS Mod,2013-02-02 19:01:00,
2013-02-02 14:07:00,30.1,14.6,30.11,WNW,284,2.0,9.0,52,0.00,,,0.00,Wunderground PWS Mod,2013-02-02 19:07:00,
2013-02-02 14:12:00,29.5,12.2,30.10,SW,224,3.0,9.0,48,0.00,,,0.00,Wunderground PWS Mod,2013-02-02 19:12:00,
2013-02-02 14:17:00,29.9,13.9,30.10,WSW,254,2.0,9.0,51,0.00,,,0.00,Wunderground PWS Mod,2013-02-02 19:17:00,
2013-02-02 14:22:00,30.1,13.2,30.10,West,259,1.0,9.0,49,0.00,,,0.00,Wunderground PWS Mod,2013-02-02 19:22:00,
2013-02-02 14:28:00,29.7,12.8,30.09,SW,217,2.0,9.0,49,0.00,,,0.00,Wunderground PWS Mod,2013-02-02 19:28:00,
2013-02-02 14:34:00,29.3,12.9,30.09,West,275,2.0,9.0,50,0.00,,,0.00,Wunderground PWS Mod,2013-02-02 19:34:00,
2013-02-02 14:40:00,29.0,12.7,30.09,SSW,207,2.0,9.0,50,0.00,,,0.00,Wunderground PWS Mod,2013-02-02 19:40:00,
2013-02-02 14:46:00,29.0,13.1,30.09,WSW,257,2.0,9.0,51,0.00,,,0.00,Wunderground PWS Mod,2013-02-02 19:46:00,
2013-02-02 14:51:00,29.2,12.4,30.09,West,272,2.0,9.0,49,0.00,,,0.00,Wunderground PWS Mod,2013-02-02 19:51:00,
2013-02-02 14:56:00,29.4,12.6,30.09,SW,222,3.0,9.0,49,0.00,,,0.00,Wunderground PWS Mod,2013-02-02 19:56:00,
2013-02-02 15:01:00,29.5,12.2,30.09,SW,223,4.0,9.0,48,0.00,,,0.00,Wunderground PWS Mod,2013-02-02 20:01:00,
2013-02-02 15:06:00,29.7,12.4,30.08,SE,139,2.0,9.0,48,0.00,,,0.00,Wunderground PWS Mod,2013-02-02 20:06:00,
2013-02-02 15:11:00,29.6,11.3,30.08,SW,215,2.0,9.0,46,0.00,,,0.00,Wunderground PWS Mod,2013-02-02 20:11:00,
2013-02-02 15:17:00,29.7,12.4,30.08,West,269,2.0,9.0,48,0.00,,,0.00,Wunderground PWS Mod,2013-02-02 20:17:00,
2013-02-02 15:23:00,29.1,12.3,30.08,WSW,257,3.0,9.0,49,0.00,,,0.00,Wunderground PWS Mod,2013-02-02 20:23:00,
2013-02-02 15:28:00,29.3,12.0,30.08,WSW,247,3.0,9.0,48,0.00,,,0.00,Wunderground PWS Mod,2013-02-02 20:28:00,
2013-02-02 15:33:00,29.4,12.6,30.07,West,269,2.0,9.0,49,0.00,,,0.00,Wunderground PWS Mod,2013-02-02 20:33:00,
2013-02-02 15:38:00,29.2,12.4,30.07,WSW,254,3.0,9.0,49,0.00,,,0.00,Wunderground PWS Mod,2013-02-02 20:38:00,
2013-02-02 15:43:00,29.3,13.4,30.07,SW,215,2.0,9.0,51,0.00,,,0.00,Wunderground PWS Mod,2013-02-02 20:43:00,
2013-02-02 15:48:00,29.0,13.1,30.07,West,266,2.0,9.0,51,0.00,,,0.00,Wunderground PWS Mod,2013-02-02 20:48:00,
2013-02-02 15:54:00,28.5,12.6,30.07,West,269,3.0,9.0,51,0.00,,,0.00,Wunderground PWS Mod,2013-02-02 20:54:00,
2013-02-02 16:00:00,28.5,12.6,30.07,SW,225,3.0,9.0,51,0.00,,,0.00,Wunderground PWS Mod,2013-02-02 21:00:00,
2013-02-02 16:05:00,28.4,12.1,30.07,West,270,3.0,12.0,50,0.00,,,0.00,Wunderground PWS Mod,2013-02-02 21:05:00,
2013-02-02 16:07:00,28.5,12.6,30.07,West,270,3.0,12.0,51,0.00,,,0.00,Wunderground PWS Mod,2013-02-02 21:07:00,
2013-02-02 16:11:00,28.4,12.6,30.07,West,268,3.0,12.0,51,0.00,,,0.00,Wunderground PWS Mod,2013-02-02 21:11:00,
2013-02-02 16:16:00,28.3,12.5,30.07,West,263,2.0,12.0,51,0.00,,,0.00,Wunderground PWS Mod,2013-02-02 21:16:00,
2013-02-02 16:21:00,28.2,12.4,30.07,West,269,3.0,12.0,51,0.00,,,0.00,Wunderground PWS Mod,2013-02-02 21:21:00,
2013-02-02 16:27:00,27.9,12.5,30.07,SW,230,3.0,12.0,52,0.00,,,0.00,Wunderground PWS Mod,2013-02-02 21:27:00,
2013-02-02 16:32:00,27.8,12.9,30.07,SW,235,3.0,12.0,53,0.00,,,0.00,Wunderground PWS Mod,2013-02-02 21:32:00,
2013-02-02 16:38:00,27.6,13.1,30.07,WSW,246,3.0,12.0,54,0.00,,,0.00,Wunderground PWS Mod,2013-02-02 21:38:00,
2013-02-02 16:43:00,27.6,13.5,30.07,West,261,3.0,12.0,55,0.00,,,0.00,Wunderground PWS Mod,2013-02-02 21:43:00,
2013-02-02 16:48:00,27.5,13.4,30.07,SW,227,2.0,12.0,55,0.00,,,0.00,Wunderground PWS Mod,2013-02-02 21:48:00,
2013-02-02 16:53:00,27.4,13.7,30.06,WNW,282,2.0,12.0,56,0.00,,,0.00,Wunderground PWS Mod,2013-02-02 21:53:00,
2013-02-02 16:58:00,27.3,13.7,30.06,WSW,251,2.0,12.0,56,0.00,,,0.00,Wunderground PWS Mod,2013-02-02 21:58:00,
2013-02-02 17:04:00,27.3,14.1,30.06,SW,236,2.0,12.0,57,0.00,,,0.00,Wunderground PWS Mod,2013-02-02 22:04:00,
2013-02-02 17:10:00,27.2,14.4,30.06,West,271,2.0,12.0,58,0.00,,,0.00,Wunderground PWS Mod,2013-02-02 22:10:00,
2013-02-02 17:16:00,27.3,14.8,30.06,West,263,1.0,12.0,59,0.00,,,0.00,Wunderground PWS Mod,2013-02-02 22:16:00,
2013-02-02 17:21:00,27.3,14.8,30.06,West,262,2.0,12.0,59,0.00,,,0.00,Wunderground PWS Mod,2013-02-02 22:21:00,
2013-02-02 17:26:00,27.4,15.3,30.06,West,262,2.0,12.0,60,0.00,,,0.00,Wunderground PWS Mod,2013-02-02 22:26:00,
2013-02-02 17:31:00,27.4,15.3,30.06,West,261,2.0,12.0,60,0.00,,,0.00,Wunderground PWS Mod,2013-02-02 22:31:00,
2013-02-02 17:37:00,27.5,15.4,30.06,WSW,246,2.0,12.0,60,0.00,,,0.00,Wunderground PWS Mod,2013-02-02 22:37:00,
2013-02-02 17:42:00,27.5,15.8,30.06,SSW,205,2.0,12.0,61,0.00,,,0.00,Wunderground PWS Mod,2013-02-02 22:42:00,
2013-02-02 17:48:00,27.5,15.4,30.06,West,267,2.0,12.0,60,0.00,,,0.00,Wunderground PWS Mod,2013-02-02 22:48:00,
2013-02-02 17:53:00,27.4,14.9,30.06,WSW,246,3.0,12.0,59,0.00,,,0.00,Wunderground PWS Mod,2013-02-02 22:53:00,
2013-02-02 17:58:00,27.4,14.9,30.06,WSW,244,2.0,12.0,59,0.00,,,0.00,Wunderground PWS Mod,2013-02-02 22:58:00,
2013-02-02 18:04:00,27.4,14.5,30.06,West,276,2.0,12.0,58,0.00,,,0.00,Wunderground PWS Mod,2013-02-02 23:04:00,
2013-02-02 18:10:00,27.4,14.9,30.06,West,274,2.0,12.0,59,0.00,,,0.00,Wunderground PWS Mod,2013-02-02 23:10:00,
2013-02-02 18:15:00,27.4,14.9,30.05,West,265,2.0,12.0,59,0.00,,,0.00,Wunderground PWS Mod,2013-02-02 23:15:00,
2013-02-02 18:21:00,27.4,14.9,30.05,West,263,2.0,12.0,59,0.00,,,0.00,Wunderground PWS Mod,2013-02-02 23:21:00,
2013-02-02 18:27:00,27.4,14.5,30.05,West,274,2.0,12.0,58,0.00,,,0.00,Wunderground PWS Mod,2013-02-02 23:27:00,
2013-02-02 18:32:00,27.4,14.9,30.05,West,271,2.0,12.0,59,0.00,,,0.00,Wunderground PWS Mod,2013-02-02 23:32:00,
2013-02-02 18:38:00,27.4,14.9,30.05,WSW,257,2.0,12.0,59,0.00,,,0.00,Wunderground PWS Mod,2013-02-02 23:38:00,
2013-02-02 18:43:00,27.5,15.4,30.05,SW,234,2.0,12.0,60,0.00,,,0.00,Wunderground PWS Mod,2013-02-02 23:43:00,
2013-02-02 18:48:00,27.5,15.4,30.05,WSW,258,1.0,12.0,60,0.00,,,0.00,Wunderground PWS Mod,2013-02-02 23:48:00,
2013-02-02 18:53:00,27.5,15.8,30.05,West,270,1.0,12.0,61,0.00,,,0.00,Wunderground PWS Mod,2013-02-02 23:53:00,
2013-02-02 18:58:00,27.6,15.9,30.05,WSW,254,2.0,12.0,61,0.00,,,0.00,Wunderground PWS Mod,2013-02-02 23:58:00,
2013-02-02 19:04:00,27.7,16.0,30.04,West,262,2.0,12.0,61,0.00,,,0.00,Wunderground PWS Mod,2013-02-03 00:04:00,
2013-02-02 19:10:00,27.8,16.1,30.04,WSW,246,2.0,12.0,61,0.00,,,0.00,Wunderground PWS Mod,2013-02-03 00:10:00,
2013-02-02 19:15:00,27.8,16.5,30.04,WSW,253,2.0,12.0,62,0.00,,,0.00,Wunderground PWS Mod,2013-02-03 00:15:00,
2013-02-02 19:20:00,27.9,16.6,30.04,West,267,2.0,12.0,62,0.00,,,0.00,Wunderground PWS Mod,2013-02-03 00:20:00,
2013-02-02 19:25:00,27.9,16.6,30.04,West,271,2.0,12.0,62,0.00,,,0.00,Wunderground PWS Mod,2013-02-03 00:25:00,
2013-02-02 19:31:00,28.0,16.6,30.04,West,263,2.0,12.0,62,0.00,,,0.00,Wunderground PWS Mod,2013-02-03 00:31:00,
2013-02-02 19:36:00,28.0,16.3,30.04,West,273,2.0,12.0,61,0.00,,,0.00,Wunderground PWS Mod,2013-02-03 00:36:00,
2013-02-02 19:42:00,28.1,16.4,30.04,SSW,195,2.0,12.0,61,0.00,,,0.00,Wunderground PWS Mod,2013-02-03 00:42:00,
2013-02-02 19:48:00,28.1,16.0,30.04,West,272,2.0,12.0,60,0.00,,,0.00,Wunderground PWS Mod,2013-02-03 00:48:00,
2013-02-02 19:53:00,28.2,16.1,30.04,SW,226,2.0,12.0,60,0.00,,,0.00,Wunderground PWS Mod,2013-02-03 00:53:00,
2013-02-02 19:58:00,28.2,16.1,30.04,WSW,256,2.0,12.0,60,0.00,,,0.00,Wunderground PWS Mod,2013-02-03 00:58:00,
2013-02-02 20:03:00,28.2,16.1,30.03,West,261,1.0,12.0,60,0.00,,,0.00,Wunderground PWS Mod,2013-02-03 01:03:00,
2013-02-02 20:07:00,28.2,16.1,30.03,West,270,2.0,8.0,60,0.00,,,0.00,Wunderground PWS Mod,2013-02-03 01:07:00,
2013-02-02 20:09:00,28.2,15.7,30.03,WSW,254,2.0,8.0,59,0.00,,,0.00,Wunderground PWS Mod,2013-02-03 01:09:00,
2013-02-02 20:15:00,28.3,15.4,30.03,West,259,2.0,8.0,58,0.00,,,0.00,Wunderground PWS Mod,2013-02-03 01:15:00,
2013-02-02 20:20:00,28.3,15.8,30.03,West,263,2.0,8.0,59,0.00,,,0.00,Wunderground PWS Mod,2013-02-03 01:20:00,
2013-02-02 20:26:00,28.3,15.0,30.03,West,273,2.0,8.0,57,0.00,,,0.00,Wunderground PWS Mod,2013-02-03 01:26:00,
2013-02-02 20:31:00,28.3,15.0,30.03,West,265,2.0,8.0,57,0.00,,,0.00,Wunderground PWS Mod,2013-02-03 01:31:00,
2013-02-02 20:37:00,28.3,14.6,30.03,West,267,1.0,8.0,56,0.00,,,0.00,Wunderground PWS Mod,2013-02-03 01:37:00,
2013-02-02 20:42:00,28.3,15.0,30.03,WNW,290,2.0,8.0,57,0.00,,,0.00,Wunderground PWS Mod,2013-02-03 01:42:00,
2013-02-02 20:47:00,28.3,14.6,30.03,West,262,2.0,8.0,56,0.00,,,0.00,Wunderground PWS Mod,2013-02-03 01:47:00,
2013-02-02 20:53:00,28.4,14.7,30.03,West,269,2.0,8.0,56,0.00,,,0.00,Wunderground PWS Mod,2013-02-03 01:53:00,
2013-02-02 20:59:00,28.4,14.7,30.03,West,268,3.0,8.0,56,0.00,,,0.00,Wunderground PWS Mod,2013-02-03 01:59:00,
2013-02-02 21:04:00,28.4,14.3,30.03,SW,219,3.0,8.0,55,0.00,,,0.00,Wunderground PWS Mod,2013-02-03 02:04:00,
2013-02-02 21:10:00,28.4,14.7,30.03,West,267,3.0,8.0,56,0.00,,,0.00,Wunderground PWS Mod,2013-02-03 02:10:00,
2013-02-02 21:16:00,28.3,15.4,30.04,West,276,3.0,8.0,58,0.00,,,0.00,Wunderground PWS Mod,2013-02-03 02:16:00,
2013-02-02 21:21:00,28.2,15.7,30.04,WNW,290,3.0,8.0,59,0.00,,,0.00,Wunderground PWS Mod,2013-02-03 02:21:00,
2013-02-02 21:26:00,28.0,15.9,30.04,SW,232,4.0,8.0,60,0.00,,,0.00,Wunderground PWS Mod,2013-02-03 02:26:00,
2013-02-02 21:31:00,27.9,16.6,30.04,WNW,285,4.0,8.0,62,0.00,,,0.00,Wunderground PWS Mod,2013-02-03 02:31:00,
2013-02-02 21:37:00,27.7,17.1,30.04,WSW,257,3.0,8.0,64,0.00,,,0.00,Wunderground PWS Mod,2013-02-03 02:37:00,
2013-02-02 21:42:00,27.6,17.0,30.04,West,259,2.0,8.0,64,0.00,,,0.00,Wunderground PWS Mod,2013-02-03 02:42:00,
2013-02-02 21:47:00,27.6,17.7,30.04,West,274,2.0,8.0,66,0.00,,,0.00,Wunderground PWS Mod,2013-02-03 02:47:00,
2013-02-02 21:52:00,27.4,17.9,30.04,West,279,2.0,8.0,67,0.00,,,0.00,Wunderground PWS Mod,2013-02-03 02:52:00,
2013-02-02 21:57:00,27.2,18.0,30.04,NW,306,2.0,8.0,68,0.00,,,0.00,Wunderground PWS Mod,2013-02-03 02:57:00,
2013-02-02 22:03:00,27.0,18.5,30.04,West,274,2.0,8.0,70,0.00,,,0.00,Wunderground PWS Mod,2013-02-03 03:03:00,
2013-02-02 22:09:00,26.8,18.7,30.04,WNW,285,2.0,8.0,71,0.00,,,0.00,Wunderground PWS Mod,2013-02-03 03:09:00,
2013-02-02 22:15:00,26.6,19.1,30.04,West,277,2.0,8.0,73,0.00,,,0.00,Wunderground PWS Mod,2013-02-03 03:15:00,
2013-02-02 22:20:00,26.3,19.5,30.04,West,279,3.0,8.0,75,0.00,,,0.00,Wunderground PWS Mod,2013-02-03 03:20:00,
2013-02-02 22:26:00,26.2,20.0,30.04,West,264,3.0,8.0,77,0.00,,,0.00,Wunderground PWS Mod,2013-02-03 03:26:00,
2013-02-02 22:31:00,26.0,20.1,30.04,West,279,2.0,8.0,78,0.00,,,0.00,Wunderground PWS Mod,2013-02-03 03:31:00,
2013-02-02 22:36:00,25.8,20.5,30.04,WSW,239,3.0,8.0,80,0.00,,,0.00,Wunderground PWS Mod,2013-02-03 03:36:00,
2013-02-02 22:42:00,25.7,20.7,30.04,West,271,3.0,8.0,81,0.00,,,0.00,Wunderground PWS Mod,2013-02-03 03:42:00,
2013-02-02 22:47:00,25.6,20.6,30.04,WSW,257,2.0,8.0,81,0.00,,,0.00,Wunderground PWS Mod,2013-02-03 03:47:00,
2013-02-02 22:52:00,25.5,20.8,30.04,WSW,251,1.0,8.0,82,0.00,,,0.00,Wunderground PWS Mod,2013-02-03 03:52:00,
2013-02-02 22:58:00,25.5,20.8,30.04,West,269,1.0,8.0,82,0.00,,,0.00,Wunderground PWS Mod,2013-02-03 03:58:00,
2013-02-02 23:03:00,25.4,20.7,30.04,West,275,1.0,8.0,82,0.00,,,0.00,Wunderground PWS Mod,2013-02-03 04:03:00,
2013-02-02 23:08:00,25.3,20.6,30.04,West,281,0.0,8.0,82,0.00,,,0.00,Wunderground PWS Mod,2013-02-03 04:08:00,
2013-02-02 23:14:00,25.2,19.9,30.04,West,279,1.0,8.0,80,0.00,,,0.00,Wunderground PWS Mod,2013-02-03 04:14:00,
2013-02-02 23:20:00,25.0,19.7,30.04,West,271,2.0,8.0,80,0.00,,,0.00,Wunderground PWS Mod,2013-02-03 04:20:00,
2013-02-02 23:26:00,24.9,19.6,30.04,West,271,1.0,8.0,80,0.00,,,0.00,Wunderground PWS Mod,2013-02-03 04:26:00,
2013-02-02 23:31:00,24.9,19.3,30.04,West,279,1.0,8.0,79,0.00,,,0.00,Wunderground PWS Mod,2013-02-03 04:31:00,
2013-02-02 23:36:00,24.9,19.3,30.04,West,268,1.0,8.0,79,0.00,,,0.00,Wunderground PWS Mod,2013-02-03 04:36:00,
2013-02-02 23:42:00,24.7,19.1,30.04,WNW,286,2.0,8.0,79,0.00,,,0.00,Wunderground PWS Mod,2013-02-03 04:42:00,
2013-02-02 23:47:00,24.5,19.2,30.04,West,275,2.0,8.0,80,0.00,,,0.00,Wunderground PWS Mod,2013-02-03 04:47:00,
2013-02-02 23:52:00,24.4,19.4,30.04,West,281,2.0,8.0,81,0.00,,,0.00,Wunderground PWS Mod,2013-02-03 04:52:00,
2013-02-02 23:57:00,24.3,19.6,30.03,NW,312,1.0,8.0,82,0.00,,,0.00,Wunderground PWS Mod,2013-02-03 04:57:00,